Weather History for Evansville, IN

Change the Weather History Date:

Saturday, October 27, 2012

  Actual Average Record
Temperature  
Mean Temperature 47 °F 54 °F  
Max Temperature 56 °F 66 °F 85 °F (1963)
Min Temperature 37 °F 43 °F 27 °F (1961)
Degree Days  
Heating Degree Days 18 11  
Month to date heating degree days 221 210  
Since 1 July heating degree days 264 257  
Cooling Degree Days 0 0  
Month to date cooling degree days 22 28  
Year to date cooling degree days 1843 1394  
Growing Degree Days 0 (Base 50)    
Moisture  
Dew Point 34 °F    
Average Humidity 60    
Maximum Humidity 79    
Minimum Humidity 41    
Precipitation  
Precipitation 0.00 in 0.11 in 1.76 in (1947)
Month to date precipitation 2.90 2.80  
Year to date precipitation 28.47 36.77  
Snow  
Snow 0.00 in 0.10 in T in (2008)
Month to date snowfall 0.0 0.2  
Since 1 July snowfall 0.0 0.2  
Since 1 September snowfall 0.0 0.2  
Snow Depth 0.00 in    
Sea Level Pressure  
Sea Level Pressure 30.17 in    
Wind  
Wind Speed 10 mph (North)    
Max Wind Speed 18 mph    
Max Gust Speed 24 mph    
Visibility 10 miles    
Events Snow    
T = Trace of Precipitation, MM = Missing Value Source: NWS Daily Summary

Daily Weather History Graph

Daily Weather History Graph

Search for Another Location

Airport:

Trip Planner

Search our weather history database for the weather conditions in past years. The results will help you decide how hot, cold, wet, or windy it might be!

Date:

Astronomy

Oct. 27, 2012 Rise Set
Actual Time 7:11 AM CDT 5:56 PM CDT
Civil Twilight 6:44 AM CDT 6:23 PM CDT
Nautical Twilight 6:13 AM CDT 6:54 PM CDT
Astronomical Twilight 5:42 AM CDT 7:24 PM CDT
Moon 4:41 PM CDT (10/27) 5:07 AM CDT (10/27)
Length of Visible Light 11h 39m
Length of Day
10h 44m
Waxing Gibbous, 96% of the Moon is Illuminated
Oct 27
Waxing Gibbous
Oct 29
Full
Nov 6
Last Quarter
Nov 13
New
Nov 20
First Quarter

Hourly Weather History & Observations

Time (CDT) Temp. Windchill Dew Point Humidity Pressure Visibility Wind Dir Wind Speed Gust Speed Precip Events Conditions
12:54 AM 42.1 °F 37.1 °F 34.0 °F 73% 30.20 in 10.0 mi North 8.1 mph - N/A   Mostly Cloudy
1:54 AM 42.1 °F 37.1 °F 34.0 °F 73% 30.19 in 10.0 mi North 8.1 mph - N/A   Overcast
2:54 AM 42.1 °F 37.1 °F 34.0 °F 73% 30.20 in 10.0 mi North 8.1 mph - N/A   Overcast
3:54 AM 41.0 °F 35.2 °F 33.1 °F 73% 30.19 in 10.0 mi North 9.2 mph - N/A   Overcast
4:54 AM 39.0 °F 33.4 °F 33.1 °F 79% 30.19 in 10.0 mi North 8.1 mph - N/A   Clear
5:54 AM 39.0 °F 33.4 °F 32.0 °F 76% 30.19 in 10.0 mi North 8.1 mph - N/A   Clear
6:54 AM 37.9 °F 32.7 °F 32.0 °F 79% 30.19 in 9.0 mi North 6.9 mph - 0.00 in Snow Light Snow
7:54 AM 39.0 °F 33.4 °F 32.0 °F 76% 30.21 in 9.0 mi North 8.1 mph - 0.00 in   Clear
8:54 AM 42.1 °F 37.1 °F 34.0 °F 73% 30.22 in 10.0 mi North 8.1 mph - N/A   Clear
9:54 AM 45.0 °F 39.3 °F 34.0 °F 65% 30.21 in 10.0 mi North 11.5 mph 20.7 mph N/A   Clear
10:54 AM 48.9 °F - 36.0 °F 61% 30.20 in 10.0 mi North 10.4 mph 19.6 mph N/A   Clear
11:54 AM 52.0 °F - 36.0 °F 54% 30.19 in 10.0 mi North 13.8 mph - N/A   Clear
12:54 PM 54.0 °F - 34.0 °F 47% 30.16 in 10.0 mi NNE 12.7 mph 23.0 mph N/A   Clear
1:54 PM 54.0 °F - 36.0 °F 51% 30.14 in 10.0 mi North 11.5 mph 17.3 mph N/A   Clear
2:54 PM 55.9 °F - 35.1 °F 45% 30.13 in 10.0 mi North 15.0 mph 21.9 mph N/A   Clear
3:54 PM 55.0 °F - 33.1 °F 43% 30.12 in 10.0 mi North 15.0 mph 21.9 mph N/A   Clear
4:54 PM 54.0 °F - 30.9 °F 41% 30.13 in 10.0 mi North 13.8 mph 21.9 mph N/A   Clear
5:54 PM 51.1 °F - 32.0 °F 48% 30.14 in 10.0 mi North 9.2 mph - N/A   Clear
6:54 PM 48.9 °F - 33.1 °F 54% 30.16 in 10.0 mi North 8.1 mph - N/A   Clear
7:54 PM 46.9 °F - 34.0 °F 61% 30.17 in 10.0 mi NNW 5.8 mph - N/A   Clear
8:54 PM 45.0 °F 40.6 °F 34.0 °F 65% 30.17 in 10.0 mi North 8.1 mph - N/A   Clear
9:54 PM 45.0 °F 39.7 °F 34.0 °F 65% 30.16 in 10.0 mi North 10.4 mph - N/A   Clear
10:54 PM 44.6 °F 39.2 °F 33.8 °F 66% 30.15 in 10.0 mi North 10.4 mph - N/A   Clear
11:54 PM 43.0 °F 37.7 °F 34.0 °F 71% 30.14 in 10.0 mi North 9.2 mph - N/A   Clear